| time (UTC) | temp C | wind direction | speed KPH | gust KPH | rain 1hr cm | rain 24hr cm | rain mn cm | humidity % | barometer mb |
| 20260507030021 | 13 | 299 | 8.0 | 17.7 | 0.00 | 0.00 | 0.00 | 70 | 1020.2 |
| 20260507025809 | 13 | 290 | 9.7 | 17.7 | 0.00 | 0.00 | 0.00 | 70 | 1020.2 |
| 20260507025018 | 13 | 256 | 8.0 | 17.7 | 0.00 | 0.00 | 0.00 | 70 | 1020.2 |
| 20260507024515 | 13 | 287 | 8.0 | 17.7 | 0.00 | 0.00 | 0.00 | 70 | 1020.2 |
| 20260507024014 | 13 | 310 | 8.0 | 17.7 | 0.00 | 0.00 | 0.00 | 70 | 1020.2 |
| 20260507023516 | 13 | 294 | 9.7 | 17.7 | 0.00 | 0.00 | 0.00 | 69 | 1020.0 |
| 20260507023015 | 13 | 295 | 9.7 | 17.7 | 0.00 | 0.00 | 0.00 | 69 | 1020.0 |
| 20260507022513 | 13 | 305 | 9.7 | 20.9 | 0.00 | 0.00 | 0.00 | 70 | 1020.0 |
| 20260507022012 | 13 | 313 | 11.3 | 22.5 | 0.00 | 0.00 | 0.00 | 71 | 1020.1 |
| 20260507021514 | 13 | 307 | 14.5 | 24.1 | 0.00 | 0.00 | 0.00 | 70 | 1020.1 |
| 20260507021014 | 13 | 308 | 14.5 | 24.1 | 0.00 | 0.00 | 0.00 | 71 | 1020.1 |
| 20260507020511 | 13 | 331 | 12.9 | 22.5 | 0.00 | 0.00 | 0.00 | 70 | 1020.1 |
| 20260507020010 | 13 | 286 | 12.9 | 22.5 | 0.00 | 0.00 | 0.00 | 71 | 1020.1 |
| 20260507015532 | 13 | 243 | 11.3 | 19.3 | 0.00 | 0.00 | 0.00 | 71 | 1020.1 |
| 20260507014501 | 13 | 291 | 16.1 | 32.2 | 0.00 | 0.00 | 0.00 | 71 | 1020.1 |
| 20260507013952 | 13 | 311 | 11.3 | 25.7 | 0.00 | 0.00 | 0.00 | 69 | 1020.1 |
| 20260507013448 | 13 | 333 | 8.0 | 19.3 | 0.00 | 0.00 | 0.00 | 68 | 1020.1 |
| 20260507012942 | 13 | 304 | 9.7 | 20.9 | 0.00 | 0.00 | 0.00 | 68 | 1020.1 |
| 20260507012437 | 13 | 321 | 8.0 | 20.9 | 0.00 | 0.00 | 0.00 | 68 | 1020.1 |
| 20260507011937 | 14 | 250 | 4.8 | 19.3 | 0.00 | 0.00 | 0.00 | 67 | 1020.1 |
| 20260507011439 | 14 | 239 | 6.4 | 14.5 | 0.00 | 0.00 | 0.00 | 67 | 1020.1 |
| 20260507010940 | 14 | 269 | 9.7 | 22.5 | 0.00 | 0.00 | 0.00 | 67 | 1020.1 |
| 20260507010439 | 14 | 334 | 8.0 | 22.5 | 0.00 | 0.00 | 0.00 | 67 | 1020.1 |
| 20260507005935 | 14 | 294 | 6.4 | 16.1 | 0.00 | 0.00 | 0.00 | 67 | 1020.1 |
| 20260507005433 | 14 | 242 | 8.0 | 19.3 | 0.00 | 0.00 | 0.00 | 66 | 1020.1 |
| 20260507004933 | 14 | 263 | 6.4 | 19.3 | 0.00 | 0.00 | 0.00 | 66 | 1020.0 |
| 20260507004434 | 14 | 264 | 4.8 | 11.3 | 0.00 | 0.00 | 0.00 | 67 | 1020.0 |
| 20260507004000 | 14 | 265 | 8.0 | 16.1 | 0.00 | 0.00 | 0.00 | 67 | 1020.0 |
| 20260507003216 | 14 | 284 | 9.7 | 19.3 | 0.00 | 0.00 | 0.00 | 67 | 1020.0 |
| 20260507002429 | 14 | 248 | 9.7 | 27.4 | 0.00 | 0.00 | 0.00 | 66 | 1020.0 |
| 20260507001931 | 14 | 314 | 9.7 | 27.4 | 0.00 | 0.00 | 0.00 | 67 | 1020.1 |
| 20260507001433 | 14 | 277 | 9.7 | 16.1 | 0.00 | 0.00 | 0.00 | 67 | 1020.1 |
| 20260507000927 | 13 | 298 | 9.7 | 19.3 | 0.00 | 0.00 | 0.00 | 67 | 1020.1 |
| 20260507000420 | 13 | 274 | 11.3 | 24.1 | 0.00 | 0.00 | 0.00 | 66 | 1020.1 |
| 20260506235918 | 13 | 316 | 9.7 | 24.1 | 0.00 | 0.00 | 0.00 | 67 | 1020.1 |
| 20260506235417 | 13 | 293 | 8.0 | 17.7 | 0.00 | 0.00 | 0.00 | 69 | 1020.1 |
| 20260506234917 | 13 | 281 | 8.0 | 20.9 | 0.00 | 0.00 | 0.00 | 70 | 1020.2 |
| 20260506234658 | 13 | 310 | 6.4 | 20.9 | 0.00 | 0.00 | 0.00 | 69 | 1020.2 |
| 20260506233916 | 13 | 304 | 6.4 | 16.1 | 0.00 | 0.00 | 0.00 | 69 | 1020.2 |
| 20260506233417 | 13 | 304 | 8.0 | 16.1 | 0.00 | 0.00 | 0.00 | 70 | 1020.2 |
| 20260506233158 | 13 | 277 | 9.7 | 19.3 | 0.00 | 0.00 | 0.00 | 70 | 1020.2 |
| 20260506232418 | 13 | 272 | 8.0 | 19.3 | 0.00 | 0.00 | 0.00 | 70 | 1020.2 |
| 20260506231911 | 13 | 256 | 4.8 | 9.7 | 0.00 | 0.00 | 0.00 | 70 | 1020.2 |
| 20260506231411 | 13 | 277 | 6.4 | 17.7 | 0.00 | 0.00 | 0.00 | 70 | 1020.2 |
| 20260506230911 | 13 | 313 | 8.0 | 17.7 | 0.00 | 0.00 | 0.00 | 69 | 1020.2 |
| 20260506230416 | 13 | 304 | 9.7 | 17.7 | 0.00 | 0.00 | 0.00 | 68 | 1020.2 |
| 20260506225909 | 13 | 255 | 9.7 | 17.7 | 0.00 | 0.00 | 0.00 | 68 | 1020.2 |
| 20260506225653 | 13 | 247 | 9.7 | 20.9 | 0.00 | 0.00 | 0.00 | 68 | 1020.2 |
| 20260506224907 | 13 | 278 | 9.7 | 20.9 | 0.00 | 0.00 | 0.00 | 69 | 1020.2 |
| 20260506224406 | 13 | 265 | 11.3 | 27.4 | 0.00 | 0.00 | 0.00 | 69 | 1020.2 |
| 20260506224148 | 13 | 224 | 12.9 | 27.4 | 0.00 | 0.00 | 0.00 | 68 | 1020.2 |
| 20260506223405 | 13 | 167 | 11.3 | 20.9 | 0.00 | 0.00 | 0.00 | 69 | 1020.2 |
| 20260506222903 | 13 | 176 | 12.9 | 25.7 | 0.00 | 0.00 | 0.00 | 69 | 1020.2 |
| 20260506222402 | 13 | 212 | 11.3 | 25.7 | 0.00 | 0.00 | 0.00 | 69 | 1020.2 |
| 20260506221906 | 13 | 217 | 9.7 | 20.9 | 0.00 | 0.00 | 0.00 | 69 | 1020.4 |
| 20260506221401 | 13 | 265 | 9.7 | 24.1 | 0.00 | 0.00 | 0.00 | 68 | 1020.4 |
| 20260506220852 | 13 | 190 | 9.7 | 24.1 | 0.00 | 0.00 | 0.00 | 68 | 1020.4 |
| 20260506220358 | 13 | 263 | 9.7 | 19.3 | 0.00 | 0.00 | 0.00 | 67 | 1020.3 |
| 20260506215851 | 13 | 242 | 9.7 | 19.3 | 0.00 | 0.00 | 0.00 | 67 | 1020.3 |
| 20260506215351 | 14 | 274 | 11.3 | 20.9 | 0.00 | 0.00 | 0.00 | 67 | 1020.3 |
| 20260506214853 | 13 | 253 | 11.3 | 24.1 | 0.00 | 0.00 | 0.00 | 66 | 1020.3 |
| 20260506214351 | 13 | 269 | 11.3 | 24.1 | 0.00 | 0.00 | 0.00 | 66 | 1020.3 |
| 20260506213849 | 13 | 252 | 12.9 | 29.0 | 0.00 | 0.00 | 0.00 | 67 | 1020.3 |
| 20260506213349 | 13 | 263 | 9.7 | 29.0 | 0.00 | 0.00 | 0.00 | 67 | 1020.4 |
| 20260506212854 | 13 | 201 | 8.0 | 22.5 | 0.00 | 0.00 | 0.00 | 67 | 1020.4 |
| 20260506212348 | 13 | 230 | 11.3 | 25.7 | 0.00 | 0.00 | 0.00 | 68 | 1020.4 |
| 20260506211838 | 13 | 267 | 11.3 | 25.7 | 0.00 | 0.00 | 0.00 | 68 | 1020.5 |
| 20260506211335 | 13 | 226 | 8.0 | 16.1 | 0.00 | 0.00 | 0.00 | 68 | 1020.5 |
| 20260506211117 | 13 | 221 | 11.3 | 25.7 | 0.00 | 0.00 | 0.00 | 68 | 1020.5 |
| 20260506210335 | 13 | 258 | 11.3 | 27.4 | 0.00 | 0.00 | 0.00 | 68 | 1020.4 |
| 20260506205836 | 13 | 261 | 9.7 | 27.4 | 0.00 | 0.00 | 0.00 | 68 | 1020.4 |
| 20260506205333 | 13 | 248 | 9.7 | 20.9 | 0.00 | 0.00 | 0.00 | 68 | 1020.4 |
| 20260506205127 | 13 | 277 | 9.7 | 19.3 | 0.00 | 0.00 | 0.00 | 69 | 1020.4 |
| 20260506204334 | 13 | 231 | 11.3 | 19.3 | 0.00 | 0.00 | 0.00 | 69 | 1020.4 |
| 20260506203831 | 13 | 260 | 11.3 | 24.1 | 0.00 | 0.00 | 0.00 | 69 | 1020.4 |
| 20260506203329 | 13 | 232 | 11.3 | 24.1 | 0.00 | 0.00 | 0.00 | 70 | 1020.2 |
| 20260506202830 | 13 | 217 | 9.7 | 27.4 | 0.00 | 0.00 | 0.00 | 70 | 1020.2 |
| 20260506202333 | 13 | 282 | 9.7 | 27.4 | 0.00 | 0.00 | 0.00 | 70 | 1020.2 |
| 20260506201829 | 13 | 239 | 8.0 | 19.3 | 0.00 | 0.00 | 0.00 | 70 | 1020.3 |
| 20260506201329 | 13 | 215 | 9.7 | 19.3 | 0.00 | 0.00 | 0.00 | 69 | 1020.3 |
| 20260506200828 | 13 | 226 | 8.0 | 19.3 | 0.00 | 0.00 | 0.00 | 69 | 1020.3 |
| 20260506200329 | 13 | 238 | 9.7 | 19.3 | 0.00 | 0.00 | 0.00 | 69 | 1020.2 |
| 20260506195831 | 13 | 235 | 11.3 | 19.3 | 0.00 | 0.00 | 0.00 | 69 | 1020.2 |
| 20260506195333 | 13 | 226 | 9.7 | 20.9 | 0.00 | 0.00 | 0.00 | 69 | 1020.2 |
| 20260506194830 | 13 | 249 | 9.7 | 20.9 | 0.00 | 0.00 | 0.00 | 69 | 1020.2 |
| 20260506194330 | 13 | 224 | 9.7 | 22.5 | 0.00 | 0.00 | 0.00 | 68 | 1020.2 |
| 20260506193832 | 13 | 183 | 9.7 | 22.5 | 0.00 | 0.00 | 0.00 | 68 | 1020.2 |
| 20260506193331 | 13 | 256 | 6.4 | 19.3 | 0.00 | 0.00 | 0.00 | 69 | 1020.2 |
| 20260506192831 | 13 | 265 | 9.7 | 19.3 | 0.00 | 0.00 | 0.00 | 69 | 1020.2 |
| 20260506192330 | 13 | 208 | 11.3 | 20.9 | 0.00 | 0.00 | 0.00 | 69 | 1020.2 |
| 20260506191829 | 13 | 261 | 11.3 | 22.5 | 0.00 | 0.00 | 0.00 | 69 | 1020.1 |
| 20260506191328 | 13 | 208 | 11.3 | 22.5 | 0.00 | 0.00 | 0.00 | 70 | 1020.1 |
| 20260506190830 | 13 | 159 | 9.7 | 20.9 | 0.00 | 0.00 | 0.00 | 70 | 1020.1 |
| 20260506190321 | 13 | 235 | 9.7 | 19.3 | 0.00 | 0.00 | 0.00 | 70 | 1020.2 |
| 20260506185809 | 13 | 267 | 9.7 | 19.3 | 0.00 | 0.00 | 0.00 | 70 | 1020.2 |
| 20260506185308 | 13 | 248 | 9.7 | 22.5 | 0.00 | 0.00 | 0.00 | 70 | 1020.2 |
| 20260506184808 | 13 | 194 | 9.7 | 22.5 | 0.00 | 0.00 | 0.00 | 71 | 1020.1 |
| 20260506184312 | 13 | 150 | 11.3 | 22.5 | 0.00 | 0.00 | 0.00 | 71 | 1020.1 |
| 20260506184055 | 13 | 229 | 11.3 | 22.5 | 0.00 | 0.00 | 0.00 | 71 | 1020.1 |
| 20260506183600 | 13 | 190 | 9.7 | 22.5 | 0.00 | 0.00 | 0.00 | 70 | 1020.1 |
| 20260506182809 | 13 | 210 | 9.7 | 22.5 | 0.00 | 0.00 | 0.00 | 70 | 1020.1 |
| 20260506182311 | 13 | 255 | 9.7 | 19.3 | 0.00 | 0.00 | 0.00 | 70 | 1020.1 |
| 20260506181805 | 13 | 219 | 11.3 | 22.5 | 0.00 | 0.00 | 0.00 | 70 | 1019.9 |
| 20260506181306 | 13 | 244 | 12.9 | 22.5 | 0.00 | 0.00 | 0.00 | 70 | 1019.9 |
| 20260506180804 | 13 | 264 | 11.3 | 22.5 | 0.00 | 0.00 | 0.00 | 70 | 1019.9 |
| 20260506180304 | 13 | 221 | 11.3 | 20.9 | 0.00 | 0.00 | 0.00 | 68 | 1019.6 |
| 20260506175806 | 13 | 223 | 9.7 | 20.9 | 0.00 | 0.00 | 0.00 | 68 | 1019.6 |
| 20260506175306 | 13 | 204 | 9.7 | 22.5 | 0.00 | 0.00 | 0.00 | 68 | 1019.6 |
| 20260506174802 | 13 | 219 | 9.7 | 22.5 | 0.00 | 0.00 | 0.00 | 68 | 1019.7 |
| 20260506174301 | 13 | 256 | 9.7 | 20.9 | 0.00 | 0.00 | 0.00 | 69 | 1019.7 |
| 20260506173802 | 13 | 265 | 11.3 | 22.5 | 0.00 | 0.00 | 0.00 | 69 | 1019.7 |
| 20260506173301 | 13 | 231 | 9.7 | 22.5 | 0.00 | 0.00 | 0.00 | 68 | 1019.6 |
| 20260506172801 | 13 | 220 | 9.7 | 17.7 | 0.00 | 0.00 | 0.00 | 68 | 1019.6 |
| 20260506172306 | 13 | 260 | 9.7 | 17.7 | 0.00 | 0.00 | 0.00 | 68 | 1019.6 |
| 20260506172050 | 13 | 200 | 8.0 | 14.5 | 0.00 | 0.00 | 0.00 | 68 | 1019.7 |
| 20260506171301 | 13 | 275 | 6.4 | 17.7 | 0.00 | 0.00 | 0.00 | 69 | 1019.7 |
| 20260506171048 | 13 | 255 | 8.0 | 17.7 | 0.00 | 0.00 | 0.00 | 69 | 1019.7 |
| 20260506170304 | 13 | 277 | 6.4 | 16.1 | 0.00 | 0.00 | 0.00 | 68 | 1019.7 |
| 20260506165801 | 13 | 240 | 6.4 | 14.5 | 0.00 | 0.00 | 0.00 | 69 | 1019.7 |
| 20260506165552 | 13 | 223 | 6.4 | 12.9 | 0.00 | 0.00 | 0.00 | 70 | 1019.7 |
| 20260506165121 | 13 | 247 | 6.4 | 17.7 | 0.00 | 0.00 | 0.00 | 70 | 1019.7 |
| 20260506164303 | 13 | 233 | 6.4 | 17.7 | 0.00 | 0.00 | 0.00 | 70 | 1019.7 |
| 20260506163807 | 13 | 221 | 8.0 | 19.3 | 0.00 | 0.00 | 0.00 | 71 | 1019.7 |
| 20260506162739 | 12 | 258 | 8.0 | 17.7 | 0.00 | 0.00 | 0.00 | 71 | 1019.6 |
| 20260506162233 | 12 | 223 | 11.3 | 24.1 | 0.00 | 0.00 | 0.00 | 71 | 1019.6 |
| 20260506161732 | 12 | 215 | 9.7 | 24.1 | 0.00 | 0.00 | 0.00 | 72 | 1019.4 |
| 20260506161228 | 12 | 239 | 8.0 | 17.7 | 0.00 | 0.00 | 0.00 | 72 | 1019.4 |
| 20260506160955 | 12 | 261 | 8.0 | 17.7 | 0.00 | 0.00 | 0.00 | 72 | 1019.4 |
| 20260506160213 | 12 | 205 | 8.0 | 17.7 | 0.00 | 0.00 | 0.00 | 73 | 1019.2 |
| 20260506155711 | 12 | 206 | 8.0 | 17.7 | 0.00 | 0.00 | 0.00 | 73 | 1019.2 |
| 20260506155211 | 12 | 236 | 6.4 | 17.7 | 0.00 | 0.00 | 0.00 | 74 | 1019.2 |
| 20260506154712 | 12 | 275 | 4.8 | 11.3 | 0.00 | 0.00 | 0.00 | 75 | 1019.3 |
| 20260506154209 | 12 | 245 | 4.8 | 11.3 | 0.00 | 0.00 | 0.00 | 75 | 1019.3 |
| 20260506153710 | 12 | 244 | 4.8 | 8.0 | 0.00 | 0.00 | 0.00 | 77 | 1019.3 |
| 20260506153209 | 12 | 209 | 4.8 | 9.7 | 0.00 | 0.00 | 0.00 | 77 | 1019.2 |
| 20260506152712 | 12 | 208 | 4.8 | 9.7 | 0.00 | 0.00 | 0.00 | 77 | 1019.2 |
| 20260506152210 | 11 | 220 | 4.8 | 9.7 | 0.00 | 0.00 | 0.00 | 78 | 1019.2 |
| 20260506151709 | 11 | 217 | 4.8 | 9.7 | 0.00 | 0.00 | 0.00 | 79 | 1019.4 |
| 20260506151448 | 11 | 280 | 4.8 | 9.7 | 0.00 | 0.00 | 0.00 | 79 | 1019.4 |
| 20260506150705 | 11 | 267 | 4.8 | 9.7 | 0.00 | 0.00 | 0.00 | 79 | 1019.4 |
| 20260506150514 | 11 | 250 | 6.4 | 11.3 | 0.00 | 0.00 | 0.00 | 79 | 1019.2 |
| 20260506145203 | 11 | 236 | 6.4 | 11.3 | 0.00 | 0.00 | 0.00 | 80 | 1019.2 |
| 20260506144658 | 11 | 233 | 6.4 | 11.3 | 0.00 | 0.00 | 0.00 | 80 | 1019.2 |
| 20260506144155 | 11 | 203 | 6.4 | 14.5 | 0.00 | 0.00 | 0.00 | 80 | 1019.2 |
| 20260506143644 | 11 | 238 | 6.4 | 14.5 | 0.00 | 0.00 | 0.00 | 80 | 1019.2 |
| 20260506143134 | 11 | 239 | 6.4 | 14.5 | 0.00 | 0.00 | 0.00 | 80 | 1019.1 |
| 20260506142624 | 11 | 239 | 8.0 | 17.7 | 0.00 | 0.00 | 0.00 | 80 | 1019.1 |
| 20260506142125 | 11 | 248 | 8.0 | 17.7 | 0.00 | 0.00 | 0.00 | 80 | 1019.1 |
| 20260506141612 | 11 | 237 | 8.0 | 17.7 | 0.00 | 0.00 | 0.00 | 80 | 1018.7 |
| 20260506141111 | 11 | 257 | 8.0 | 17.7 | 0.00 | 0.00 | 0.00 | 80 | 1018.7 |
| 20260506140605 | 11 | 245 | 6.4 | 16.1 | 0.00 | 0.00 | 0.00 | 80 | 1018.8 |
| 20260506140119 | 11 | 277 | 4.8 | 11.3 | 0.00 | 0.00 | 0.00 | 81 | 1018.8 |
| 20260506135046 | 11 | 261 | 6.4 | 16.1 | 0.00 | 0.00 | 0.00 | 81 | 1018.8 |
| 20260506134545 | 11 | 223 | 4.8 | 14.5 | 0.00 | 0.00 | 0.00 | 81 | 1018.8 |
| 20260506134111 | 11 | 231 | 4.8 | 14.5 | 0.00 | 0.00 | 0.00 | 82 | 1018.8 |
| 20260506133324 | 11 | 240 | 6.4 | 14.5 | 0.00 | 0.00 | 0.00 | 82 | 1018.8 |
| 20260506132543 | 11 | 268 | 4.8 | 14.5 | 0.00 | 0.00 | 0.00 | 82 | 1018.8 |
| 20260506132038 | 11 | 249 | 4.8 | 11.3 | 0.00 | 0.00 | 0.00 | 82 | 1018.8 |
| 20260506131537 | 11 | 257 | 4.8 | 9.7 | 0.00 | 0.00 | 0.00 | 82 | 1018.8 |
| 20260506131037 | 11 | 246 | 6.4 | 14.5 | 0.00 | 0.00 | 0.00 | 82 | 1018.8 |
| 20260506130536 | 11 | 247 | 6.4 | 14.5 | 0.00 | 0.00 | 0.00 | 82 | 1018.5 |
| 20260506130343 | 11 | 261 | 4.8 | 9.7 | 0.00 | 0.00 | 0.00 | 84 | 1018.5 |
| 20260506125032 | 11 | 190 | 4.8 | 9.7 | 0.00 | 0.00 | 0.00 | 83 | 1018.6 |
| 20260506124531 | 11 | 251 | 4.8 | 9.7 | 0.00 | 0.00 | 0.00 | 83 | 1018.6 |
| 20260506124030 | 11 | 266 | 4.8 | 6.4 | 0.00 | 0.00 | 0.00 | 83 | 1018.6 |
| 20260506123530 | 11 | 272 | 4.8 | 9.7 | 0.00 | 0.00 | 0.00 | 83 | 1018.4 |
| 20260506123029 | 11 | 293 | 6.4 | 11.3 | 0.00 | 0.00 | 0.00 | 83 | 1018.4 |
| 20260506122818 | 11 | 285 | 4.8 | 11.3 | 0.00 | 0.00 | 0.00 | 82 | 1018.4 |
| 20260506122027 | 11 | 261 | 6.4 | 11.3 | 0.00 | 0.00 | 0.00 | 82 | 1018.3 |
| 20260506121524 | 11 | 270 | 6.4 | 12.9 | 0.00 | 0.00 | 0.00 | 82 | 1018.3 |
| 20260506121011 | 11 | 247 | 6.4 | 12.9 | 0.00 | 0.00 | 0.00 | 82 | 1018.3 |
| 20260506120509 | 11 | 231 | 6.4 | 11.3 | 0.00 | 0.00 | 0.00 | 82 | 1018.2 |
| 20260506120007 | 11 | 238 | 6.4 | 11.3 | 0.00 | 0.00 | 0.00 | 82 | 1018.2 |
| 20260506115503 | 11 | 216 | 4.8 | 11.3 | 0.00 | 0.00 | 0.00 | 82 | 1018.2 |
| 20260506114957 | 11 | 223 | 3.2 | 9.7 | 0.00 | 0.00 | 0.00 | 82 | 1018.1 |
| 20260506114440 | 11 | 220 | 4.8 | 8.0 | 0.00 | 0.00 | 0.00 | 82 | 1018.1 |
| 20260506113942 | 11 | 237 | 4.8 | 8.0 | 0.00 | 0.00 | 0.00 | 82 | 1018.1 |
| 20260506113431 | 11 | 253 | 3.2 | 8.0 | 0.00 | 0.00 | 0.00 | 82 | 1018.0 |
| 20260506113217 | 11 | 233 | 3.2 | 8.0 | 0.00 | 0.00 | 0.00 | 82 | 1018.0 |
| 20260506112428 | 11 | 212 | 4.8 | 8.0 | 0.00 | 0.00 | 0.00 | 82 | 1018.0 |
| 20260506112214 | 11 | 252 | 4.8 | 8.0 | 0.00 | 0.00 | 0.00 | 82 | 1018.0 |
| 20260506111428 | 11 | 256 | 3.2 | 8.0 | 0.00 | 0.00 | 0.00 | 82 | 1018.0 |
| 20260506111214 | 11 | 259 | 3.2 | 4.8 | 0.00 | 0.00 | 0.00 | 82 | 1018.0 |
| 20260506110429 | 11 | 252 | 3.2 | 6.4 | 0.00 | 0.00 | 0.00 | 82 | 1018.0 |
| 20260506105918 | 11 | 251 | 3.2 | 6.4 | 0.00 | 0.00 | 0.00 | 82 | 1018.0 |
| 20260506105417 | 11 | 269 | 3.2 | 6.4 | 0.00 | 0.00 | 0.00 | 82 | 1018.0 |
| 20260506104917 | 11 | 249 | 3.2 | 6.4 | 0.00 | 0.00 | 0.00 | 82 | 1017.7 |
| 20260506104704 | 11 | 245 | 3.2 | 6.4 | 0.00 | 0.00 | 0.00 | 82 | 1017.7 |
| 20260506103918 | 11 | 233 | 3.2 | 6.4 | 0.00 | 0.00 | 0.00 | 83 | 1017.7 |
| 20260506103418 | 11 | 238 | 3.2 | 6.4 | 0.00 | 0.00 | 0.00 | 83 | 1017.6 |
| 20260506103159 | 11 | 223 | 3.2 | 8.0 | 0.00 | 0.00 | 0.00 | 83 | 1017.6 |
| 20260506102405 | 11 | 261 | 3.2 | 8.0 | 0.00 | 0.00 | 0.00 | 83 | 1017.6 |
| 20260506101906 | 11 | 260 | 4.8 | 9.7 | 0.00 | 0.00 | 0.00 | 83 | 1017.6 |
| 20260506101406 | 11 | 218 | 4.8 | 9.7 | 0.00 | 0.00 | 0.00 | 83 | 1017.6 |
| 20260506100904 | 11 | 263 | 4.8 | 8.0 | 0.00 | 0.00 | 0.00 | 82 | 1017.6 |
| 20260506100722 | 11 | 248 | 3.2 | 8.0 | 0.00 | 0.00 | 0.00 | 82 | 1017.5 |
| 20260506095402 | 11 | 231 | 4.8 | 8.0 | 0.00 | 0.00 | 0.00 | 81 | 1017.5 |
| 20260506094902 | 11 | 216 | 4.8 | 8.0 | 0.00 | 0.00 | 0.00 | 81 | 1017.3 |
| 20260506094400 | 11 | 258 | 4.8 | 8.0 | 0.00 | 0.00 | 0.00 | 81 | 1017.3 |
| 20260506093852 | 11 | 202 | 4.8 | 8.0 | 0.00 | 0.00 | 0.00 | 81 | 1017.3 |
| 20260506093643 | 11 | 257 | 4.8 | 8.0 | 0.00 | 0.00 | 0.00 | 81 | 1017.3 |
| 20260506093139 | 11 | 259 | 4.8 | 8.0 | 0.00 | 0.00 | 0.00 | 80 | 1017.3 |
| 20260506092642 | 11 | 242 | 4.8 | 8.0 | 0.00 | 0.00 | 0.00 | 80 | 1017.3 |
| 20260506091846 | 11 | 237 | 4.8 | 9.7 | 0.00 | 0.00 | 0.00 | 80 | 1017.2 |
| 20260506091344 | 11 | 263 | 4.8 | 9.7 | 0.00 | 0.00 | 0.00 | 80 | 1017.2 |
| 20260506091131 | 11 | 261 | 3.2 | 8.0 | 0.00 | 0.00 | 0.00 | 80 | 1017.2 |
| 20260506090628 | 11 | 201 | 4.8 | 9.7 | 0.00 | 0.00 | 0.00 | 80 | 1017.4 |
| 20260506085841 | 11 | 254 | 4.8 | 9.7 | 0.00 | 0.00 | 0.00 | 80 | 1017.4 |
| 20260506085340 | 11 | 260 | 3.2 | 6.4 | 0.00 | 0.00 | 0.00 | 80 | 1017.4 |
| 20260506084842 | 11 | 274 | 1.6 | 4.8 | 0.00 | 0.00 | 0.00 | 81 | 1017.1 |
| 20260506084339 | 11 | 300 | 1.6 | 4.8 | 0.00 | 0.00 | 0.00 | 81 | 1017.1 |
| 20260506084123 | 11 | 291 | 1.6 | 4.8 | 0.00 | 0.00 | 0.00 | 81 | 1017.1 |
| 20260506083341 | 11 | 234 | 1.6 | 4.8 | 0.00 | 0.00 | 0.00 | 82 | 1017.0 |
| 20260506082831 | 11 | 219 | 1.6 | 4.8 | 0.00 | 0.00 | 0.00 | 82 | 1017.0 |
| 20260506082330 | 11 | 262 | 1.6 | 3.2 | 0.00 | 0.00 | 0.00 | 83 | 1017.0 |
| 20260506081829 | 11 | 241 | 1.6 | 4.8 | 0.00 | 0.00 | 0.00 | 84 | 1017.0 |
| 20260506081331 | 11 | 243 | 1.6 | 4.8 | 0.00 | 0.00 | 0.00 | 84 | 1017.0 |
| 20260506080830 | 11 | 273 | 1.6 | 4.8 | 0.00 | 0.00 | 0.00 | 83 | 1017.0 |
| 20260506080331 | 11 | 201 | 1.6 | 4.8 | 0.00 | 0.00 | 0.00 | 84 | 1016.8 |
| 20260506073304 | 11 | 290 | 0.0 | 1.6 | 0.00 | 0.00 | 0.00 | 85 | 1016.5 |
| 20260506072801 | 11 | 290 | 0.0 | 1.6 | 0.00 | 0.00 | 0.00 | 84 | 1016.5 |
| 20260506072306 | 11 | 290 | 0.0 | 1.6 | 0.00 | 0.00 | 0.00 | 84 | 1016.5 |
| 20260506071809 | 11 | 290 | 0.0 | 3.2 | 0.00 | 0.00 | 0.00 | 84 | 1016.5 |
| 20260506071304 | 11 | 290 | 1.6 | 3.2 | 0.00 | 0.00 | 0.00 | 84 | 1016.5 |
| 20260506071041 | 11 | 293 | 1.6 | 3.2 | 0.00 | 0.00 | 0.00 | 82 | 1016.5 |
| 20260506070303 | 11 | 285 | 1.6 | 3.2 | 0.00 | 0.00 | 0.00 | 82 | 1016.2 |
| 20260506062233 | 12 | 350 | 1.6 | 3.2 | 0.00 | 0.00 | 0.00 | 80 | 1016.0 |
| 20260506061732 | 12 | 350 | 1.6 | 3.2 | 0.00 | 0.00 | 0.00 | 80 | 1016.0 |
| 20260506061228 | 12 | 328 | 0.0 | 3.2 | 0.00 | 0.00 | 0.00 | 80 | 1016.0 |
| 20260506060737 | 12 | 273 | 0.0 | 3.2 | 0.00 | 0.00 | 0.00 | 79 | 1016.0 |
| 20260506051203 | 13 | 340 | 3.2 | 4.8 | 0.00 | 0.00 | 0.00 | 77 | 1015.6 |
| 20260506050936 | 13 | 315 | 1.6 | 4.8 | 0.00 | 0.00 | 0.00 | 76 | 1015.6 |
| 20260506050155 | 13 | 270 | 1.6 | 3.2 | 0.00 | 0.00 | 0.00 | 76 | 1015.5 |
| 20260506044642 | 13 | 39 | 1.6 | 3.2 | 0.00 | 0.00 | 0.00 | 74 | 1015.5 |
| 20260506044143 | 13 | 310 | 1.6 | 4.8 | 0.00 | 0.00 | 0.00 | 74 | 1015.5 |
| 20260506043639 | 13 | 9 | 1.6 | 4.8 | 0.00 | 0.00 | 0.00 | 73 | 1015.5 |
| 20260506043137 | 14 | 327 | 1.6 | 4.8 | 0.00 | 0.00 | 0.00 | 73 | 1015.5 |
| 20260506042913 | 14 | 222 | 3.2 | 11.3 | 0.00 | 0.00 | 0.00 | 73 | 1015.5 |
| 20260506042136 | 14 | 242 | 4.8 | 11.3 | 0.00 | 0.00 | 0.00 | 73 | 1015.5 |
| 20260506041633 | 14 | 279 | 4.8 | 8.0 | 0.00 | 0.00 | 0.00 | 72 | 1015.4 |
| 20260506041133 | 14 | 300 | 6.4 | 9.7 | 0.00 | 0.00 | 0.00 | 72 | 1015.4 |
| 20260506040635 | 14 | 299 | 6.4 | 11.3 | 0.00 | 0.00 | 0.00 | 72 | 1015.4 |
| 20260506040135 | 14 | 289 | 6.4 | 11.3 | 0.00 | 0.00 | 0.00 | 72 | 1015.0 |
| 20260506035632 | 15 | 303 | 6.4 | 9.7 | 0.00 | 0.00 | 0.00 | 72 | 1015.0 |
| 20260506035131 | 15 | 296 | 8.0 | 14.5 | 0.00 | 0.00 | 0.00 | 71 | 1015.0 |
| 20260506034632 | 15 | 314 | 6.4 | 14.5 | 0.00 | 0.00 | 0.00 | 71 | 1014.9 |
| 20260506034133 | 15 | 296 | 4.8 | 11.3 | 0.00 | 0.00 | 0.00 | 70 | 1014.9 |
| 20260506033634 | 15 | 273 | 4.8 | 6.4 | 0.00 | 0.00 | 0.00 | 70 | 1014.9 |
| 20260506033129 | 15 | 304 | 4.8 | 11.3 | 0.00 | 0.00 | 0.00 | 70 | 1014.7 |
| 20260506032630 | 15 | 321 | 6.4 | 11.3 | 0.00 | 0.00 | 0.00 | 69 | 1014.7 |
| 20260506032123 | 15 | 297 | 8.0 | 11.3 | 0.00 | 0.00 | 0.00 | 69 | 1014.7 |
| 20260506031615 | 16 | 318 | 8.0 | 11.3 | 0.00 | 0.00 | 0.00 | 68 | 1014.5 |
| 20260506031106 | 16 | 300 | 8.0 | 11.3 | 0.00 | 0.00 | 0.00 | 68 | 1014.5 |
| 20260506030559 | 16 | 306 | 6.4 | 12.9 | 0.00 | 0.00 | 0.00 | 67 | 1014.5 |